EDT,Max TemperatureF,Mean TemperatureF,Min TemperatureF,Max Dew PointF,MeanDew PointF,Min DewpointF,Max Humidity, Mean Humidity, Min Humidity, Max Sea Level PressureIn, Mean Sea Level PressureIn, Min Sea Level PressureIn, Max VisibilityMiles, Mean VisibilityMiles, Min VisibilityMiles, Max Wind SpeedMPH, Mean Wind SpeedMPH, Max Gust SpeedMPH,PrecipitationIn, CloudCover, Events, WindDirDegrees
2013-9-1,89,77,66,75,72,70,100,77,55,30.00,29.97,29.92,10,10,6,10,4,18,0.00,1,,210
2013-9-2,90,81,72,76,72,70,97,79,53,30.03,29.98,29.96,10,10,10,10,4,,0.00,1,,228
2013-9-3,90,80,70,75,73,70,100,81,55,30.04,29.99,29.94,10,10,6,13,3,16,0.00,1,,238
2013-9-4,93,81,71,76,72,69,100,85,54,30.14,30.06,29.99,10,8,2,17,4,28,0.80,3,Rain-Thunderstorm,63
2013-9-5,93,81,69,77,73,69,100,79,54,30.12,30.07,30.02,10,10,10,9,2,,0.00,1,Rain,47
2013-9-6,93,81,71,75,71,64,100,85,53,30.08,30.04,29.98,10,7,1,28,5,41,1.38,4,Rain,69
2013-9-7,90,79,68,74,71,68,100,89,52,30.04,30.00,29.94,10,9,0,23,4,36,1.42,4,Fog-Rain,46
2013-9-8,91,78,66,74,69,66,100,84,45,30.00,29.96,29.89,10,7,1,9,2,,0.00,0,,43
2013-9-9,91,80,69,72,69,65,100,75,42,30.06,30.00,29.96,10,10,2,10,3,,0.00,0,,66
2013-9-10,90,81,72,72,69,64,93,72,43,30.11,30.07,30.03,10,10,10,14,6,18,0.00,0,,53
2013-9-11,91,82,73,74,71,67,100,76,45,30.10,30.06,30.01,10,10,10,16,8,22,0.00,1,,56
2013-9-12,91,82,73,74,72,68,96,83,47,30.04,29.98,29.90,10,9,2,17,4,21,0.35,3,Rain,55
2013-9-13,89,78,68,74,71,68,100,90,55,29.93,29.89,29.83,10,8,0,10,1,,0.14,2,Rain,183
2013-9-14,91,78,68,74,71,69,100,78,57,30.02,29.92,29.86,10,9,5,14,2,,0.01,2,,352
2013-9-15,93,82,73,75,71,67,94,79,52,30.10,30.03,29.99,10,10,10,16,4,26,0.00,0,,83
2013-9-16,91,82,73,74,72,71,100,84,52,30.10,30.06,29.98,10,9,2,16,4,31,0.03,2,,69
2013-9-17,91,80,71,74,72,70,100,83,53,30.08,30.03,29.96,10,10,10,13,4,18,0.04,1,,60
2013-9-18,90,80,73,74,73,72,97,86,61,30.07,30.03,29.99,10,10,2,17,7,24,0.26,3,Rain,59
2013-9-19,90,80,72,74,72,69,97,78,53,30.08,30.03,29.99,10,10,10,13,7,18,0.00,1,,66
2013-9-20,90,80,70,70,68,65,93,73,46,30.05,29.99,29.91,10,10,9,12,4,,0.00,1,Rain,76
2013-9-21,90,77,66,72,68,65,100,82,46,29.96,29.88,29.80,10,8,1,9,2,,0.00,0,,182
2013-9-22,87,80,73,77,74,71,97,90,65,29.88,29.82,29.78,10,8,0,20,4,26,0.00,5,Rain,209
2013-9-23,75,72,69,76,72,70,100,100,100,29.97,29.92,29.86,10,6,1,15,5,23,0.00,6,Rain,104
2013-9-24,80,76,71,76,74,71,100,96,84,29.96,29.90,29.87,10,10,7,14,8,,0.00,6,Rain-Thunderstorm,167
2013-9-25,82,76,71,75,73,70,100,92,76,29.88,29.84,29.80,10,10,5,13,7,20,0.00,4,Rain,221
2013-9-26,88,80,72,78,74,67,100,89,51,29.91,29.83,29.79,10,7,2,14,5,22,0.00,5,Rain,270
2013-9-27,84,76,68,72,69,68,96,81,63,30.00,29.94,29.90,10,10,10,13,5,,0.00,5,Rain,27
2013-9-28,86,77,68,72,70,67,96,83,61,30.03,30.00,29.96,10,10,10,16,7,24,0.00,4,,37
2013-9-29,88,76,66,68,67,66,97,94,90,30.03,29.98,29.92,10,10,10,9,5,,0.00,1,,41
2013-9-30,88,78,69,72,70,67,97,74,51,30.02,29.98,29.94,10,10,10,8,2,,0.00,4,,58